TimeEST,TemperatureF,Dew PointF,Humidity,Sea Level PressureIn,VisibilityMPH,Wind Direction,Wind SpeedMPH,Gust SpeedMPH,PrecipitationIn,Events,Conditions,WindDirDegrees,DateUTC
12:15 AM,41.0,37.4,87,30.31,6.0,Calm,Calm,-,N/A,,Clear,0,2011-11-08 05:15:00
12:35 AM,42.8,39.2,87,30.31,10.0,Calm,Calm,-,N/A,,Clear,0,2011-11-08 05:35:00
12:55 AM,41.0,37.4,87,30.30,10.0,Calm,Calm,-,N/A,,Clear,0,2011-11-08 05:55:00
1:15 AM,41.0,37.4,87,30.29,10.0,Calm,Calm,-,N/A,,Clear,0,2011-11-08 06:15:00
1:35 AM,39.2,35.6,87,30.29,10.0,Calm,Calm,-,N/A,,Clear,0,2011-11-08 06:35:00
1:55 AM,39.2,37.4,93,30.29,10.0,Calm,Calm,-,N/A,,Clear,0,2011-11-08 06:55:00
2:15 AM,39.2,37.4,93,30.28,10.0,Calm,Calm,-,N/A,,Clear,0,2011-11-08 07:15:00
2:35 AM,39.2,35.6,87,30.28,10.0,Calm,Calm,-,N/A,,Clear,0,2011-11-08 07:35:00
2:55 AM,39.2,35.6,87,30.28,10.0,Calm,Calm,-,N/A,,Clear,0,2011-11-08 07:55:00
3:15 AM,39.2,35.6,87,30.27,10.0,Calm,Calm,-,N/A,,Clear,0,2011-11-08 08:15:00
3:35 AM,39.2,35.6,87,30.28,7.0,Calm,Calm,-,N/A,,Clear,0,2011-11-08 08:35:00
4:15 AM,39.2,35.6,87,30.29,10.0,Calm,Calm,-,N/A,,Clear,0,2011-11-08 09:15:00
4:35 AM,39.2,35.6,87,30.29,10.0,Calm,Calm,-,N/A,,Clear,0,2011-11-08 09:35:00
4:55 AM,39.2,37.4,93,30.29,10.0,Calm,Calm,-,N/A,,Clear,0,2011-11-08 09:55:00
5:15 AM,39.2,35.6,87,30.29,10.0,Calm,Calm,-,N/A,,Clear,0,2011-11-08 10:15:00
5:35 AM,37.4,33.8,87,30.29,9.0,Calm,Calm,-,N/A,,Clear,0,2011-11-08 10:35:00
5:55 AM,39.2,37.4,93,30.29,9.0,Calm,Calm,-,N/A,,Clear,0,2011-11-08 10:55:00
6:35 AM,39.2,35.6,87,30.29,9.0,Calm,Calm,-,N/A,,Clear,0,2011-11-08 11:35:00
7:15 AM,39.2,35.6,87,30.30,8.0,Calm,Calm,-,N/A,,Clear,0,2011-11-08 12:15:00
7:35 AM,42.8,39.2,87,30.31,10.0,Calm,Calm,-,N/A,,Clear,0,2011-11-08 12:35:00
7:55 AM,44.6,42.8,93,30.31,10.0,Calm,Calm,-,N/A,,Clear,0,2011-11-08 12:55:00
8:15 AM,48.2,44.6,87,30.31,10.0,Calm,Calm,-,N/A,,Clear,0,2011-11-08 13:15:00
8:35 AM,53.6,50.0,88,30.31,10.0,Calm,Calm,-,N/A,,Clear,0,2011-11-08 13:35:00
8:55 AM,55.4,50.0,82,30.31,10.0,West,3.5,-,N/A,,Clear,260,2011-11-08 13:55:00
9:15 AM,55.4,50.0,82,30.31,10.0,Calm,Calm,-,N/A,,Clear,0,2011-11-08 14:15:00
9:35 AM,57.2,48.2,72,30.31,10.0,West,3.5,-,N/A,,Clear,270,2011-11-08 14:35:00
9:55 AM,59.0,48.2,67,30.31,10.0,Calm,Calm,-,N/A,,Clear,0,2011-11-08 14:55:00
10:15 AM,60.8,48.2,63,30.31,10.0,West,3.5,-,N/A,,Clear,270,2011-11-08 15:15:00
10:35 AM,62.6,44.6,52,30.30,10.0,West,3.5,-,N/A,,Clear,270,2011-11-08 15:35:00
10:55 AM,64.4,44.6,49,30.29,10.0,Calm,Calm,-,N/A,,Clear,0,2011-11-08 15:55:00
11:15 AM,64.4,44.6,49,30.29,10.0,WNW,5.8,-,N/A,,Clear,290,2011-11-08 16:15:00
11:35 AM,62.6,44.6,52,30.28,10.0,West,6.9,-,N/A,,Clear,280,2011-11-08 16:35:00
12:15 PM,64.4,44.6,49,30.26,10.0,West,4.6,-,N/A,,Clear,270,2011-11-08 17:15:00
12:35 PM,64.4,44.6,49,30.26,10.0,West,4.6,-,N/A,,Clear,280,2011-11-08 17:35:00
12:55 PM,64.4,44.6,49,30.25,10.0,West,3.5,-,N/A,,Clear,270,2011-11-08 17:55:00
1:15 PM,64.4,42.8,45,30.25,10.0,West,5.8,-,N/A,,Clear,270,2011-11-08 18:15:00
1:35 PM,64.4,42.8,45,30.24,10.0,West,4.6,-,N/A,,Clear,260,2011-11-08 18:35:00
1:55 PM,64.4,42.8,45,30.24,10.0,West,4.6,-,N/A,,Clear,270,2011-11-08 18:55:00
2:15 PM,64.4,42.8,45,30.24,10.0,West,4.6,-,N/A,,Clear,260,2011-11-08 19:15:00
2:35 PM,64.4,42.8,45,30.24,10.0,WSW,3.5,-,N/A,,Clear,240,2011-11-08 19:35:00
3:15 PM,64.4,42.8,45,30.24,10.0,West,5.8,-,N/A,,Clear,260,2011-11-08 20:15:00
3:35 PM,64.4,41.0,42,30.24,10.0,West,3.5,-,N/A,,Clear,270,2011-11-08 20:35:00
3:55 PM,64.4,42.8,45,30.24,10.0,Calm,Calm,-,N/A,,Clear,0,2011-11-08 20:55:00
4:15 PM,62.6,44.6,52,30.24,10.0,Calm,Calm,-,N/A,,Clear,0,2011-11-08 21:15:00
4:35 PM,60.8,46.4,59,30.24,10.0,Calm,Calm,-,N/A,,Clear,0,2011-11-08 21:35:00
4:55 PM,57.2,44.6,63,30.24,10.0,Calm,Calm,-,N/A,,Clear,0,2011-11-08 21:55:00
5:15 PM,55.4,42.8,63,30.25,10.0,Calm,Calm,-,N/A,,Clear,0,2011-11-08 22:15:00
5:35 PM,53.6,42.8,67,30.24,10.0,Calm,Calm,-,N/A,,Clear,0,2011-11-08 22:35:00
5:55 PM,51.8,42.8,71,30.24,10.0,Calm,Calm,-,N/A,,Clear,0,2011-11-08 22:55:00
6:15 PM,51.8,42.8,71,30.24,10.0,Calm,Calm,-,N/A,,Clear,0,2011-11-08 23:15:00
6:35 PM,50.0,41.0,71,30.24,10.0,Calm,Calm,-,N/A,,Clear,0,2011-11-08 23:35:00
6:55 PM,48.2,41.0,76,30.25,10.0,Calm,Calm,-,N/A,,Clear,0,2011-11-08 23:55:00
7:15 PM,48.2,41.0,76,30.24,10.0,Calm,Calm,-,N/A,,Clear,0,2011-11-09 00:15:00
7:35 PM,48.2,41.0,76,30.24,10.0,Calm,Calm,-,N/A,,Clear,0,2011-11-09 00:35:00
7:55 PM,48.2,41.0,76,30.24,10.0,Calm,Calm,-,N/A,,Clear,0,2011-11-09 00:55:00
8:15 PM,46.4,39.2,76,30.24,10.0,Calm,Calm,-,N/A,,Clear,0,2011-11-09 01:15:00
8:35 PM,44.6,39.2,81,30.25,10.0,Calm,Calm,-,N/A,,Clear,0,2011-11-09 01:35:00
8:55 PM,46.4,41.0,81,30.25,10.0,Calm,Calm,-,N/A,,Clear,0,2011-11-09 01:55:00
9:15 PM,44.6,41.0,87,30.26,10.0,Calm,Calm,-,N/A,,Clear,0,2011-11-09 02:15:00
9:35 PM,44.6,41.0,87,30.26,10.0,Calm,Calm,-,N/A,,Clear,0,2011-11-09 02:35:00
9:55 PM,44.6,39.2,81,30.26,10.0,Calm,Calm,-,N/A,,Clear,0,2011-11-09 02:55:00
10:15 PM,44.6,39.2,81,30.26,10.0,Calm,Calm,-,N/A,,Clear,0,2011-11-09 03:15:00
10:35 PM,44.6,41.0,87,30.25,10.0,Calm,Calm,-,N/A,,Clear,0,2011-11-09 03:35:00
10:55 PM,46.4,42.8,87,30.25,10.0,Calm,Calm,-,N/A,,Clear,0,2011-11-09 03:55:00
11:15 PM,44.6,39.2,81,30.24,9.0,Calm,Calm,-,N/A,,Clear,0,2011-11-09 04:15:00
11:35 PM,44.6,39.2,81,30.24,10.0,Calm,Calm,-,N/A,,Clear,0,2011-11-09 04:35:00
11:55 PM,44.6,39.2,81,30.24,10.0,Calm,Calm,-,N/A,,Clear,0,2011-11-09 04:55:00